Flag for Slovenia Weather past 2 weeks in Maribor, Slovenia

Now
37 °F

Chilly.


Feels Like: 35 °F
Forecast: 25 / 39 °F
Wind: 3 mph from South

Location: Maribor / Slivnica

Current Time: Jan 28, 2015 at 5:53:00 PM

Latest Report: Jan 28, 2015 at 5:00 PM


Visibility: N/A

Pressure: 29.99 "Hg

Humidity: 59%

Dew point: 24 °F

Location of MariborLocation

Historic Weather in Maribor — Graph

°F

Maribor temperature yesterday

Maximum temperature yesterday: 33 °F (at 4:00 PM)
Minimum temperature yesterday: 24 °F (at 4:00 AM)
Average temperature yesterday: 29 °F

Past Weeks' High & Low Weather Summary

 TemperatureHumidityPressure
High57 °F (Jan 17, 2:00 PM)97% (Jan 20, 7:00 AM)30.33 "Hg (Jan 20, 7:00 AM)
Low23 °F (Jan 28, 6:00 AM)45% (Jan 14, 12:00 PM)29.84 "Hg (Jan 17, 3:00 PM)
Average39 °F78%30.02 "Hg
* Reported Jan 13 4:00 PM — Jan 28 4:00 PM, Maribor, Weather by CustomWeather, © 2014

Note: Actual official high and low records may vary slightly from our data, if they occured in-between our weather recording intervals... More about our weather records

Advertising

Maribor weather history for previous 24 hours

 ConditionsComfort  
Time TempWeatherWind HumidityBarometerVisibility
4:00 PM
Jan 28
40 °FPassing clouds.3 mph55%29.99 "Hg25 mi
3:00 PM42 °FPassing clouds.3 mph49%30.01 "Hg31 mi
2:00 PM41 °FPassing clouds.3 mph49%30.03 "Hg31 mi
1:00 PM40 °FPassing clouds.2 mph50%30.06 "Hg31 mi
12:00 PM39 °FPassing clouds.2 mph58%30.09 "Hg25 mi
11:00 AM34 °FPassing clouds.2 mph75%30.12 "Hg19 mi
10:00 AM34 °FSunny.1 mph75%30.12 "Hg19 mi
9:00 AM28 °FPassing clouds.No wind90%30.13 "Hg19 mi
8:00 AM24 °FPassing clouds.1 mph91%30.14 "Hg25 mi
7:00 AM24 °FClear.1 mph92%30.13 "Hg25 mi
6:00 AM23 °FClear.1 mph90%30.12 "Hg9 mi
5:00 AM24 °FFog.1 mph93%30.11 "HgN/A
4:00 AM24 °FFog.1 mph93%30.11 "HgN/A
3:00 AM25 °FFog.1 mph93%30.11 "HgN/A
2:00 AM26 °FFog.1 mph93%30.11 "HgN/A
1:00 AM26 °FFog.1 mph94%30.11 "HgN/A
12:00 AM27 °FFog.1 mph93%30.11 "HgN/A
11:00 PM
Jan 27
29 °FFog.1 mph90%30.10 "HgN/A
10:00 PM29 °FFog.2 mph88%30.09 "Hg2 mi
9:00 PM30 °FPassing clouds.3 mph90%30.09 "Hg2 mi
8:00 PM31 °FFog.1 mph88%30.09 "Hg4 mi
7:00 PM32 °FFog.1 mph89%30.08 "Hg4 mi
6:00 PM31 °FOvercast.2 mph86%30.06 "Hg7 mi
5:00 PM33 °FOvercast.1 mph80%30.04 "Hg7 mi
Weather by CustomWeather, © 2014

See weather overviewHow to use our weather pages